Погода Красная Гора

Погода Красная Гора : погода сейчас, прогноз погоды и архив. Всё, что Вы хотите узнать о погоде Красная Гора!

Хотите узнать прогноз погоды Красная Гора? Тогда Вам сюда: Погода Красная Гора

Поиск расширенной информации на нашем сайте:

Другие новости

Новости СМИ2

Главная страница сайта

Новости сайта

03.07.2017

Напоминаем, что на нашем специализированном сайте Метеоцентр.Азия вы можете получить высокодетализированные автоматические прогнозы погоды по пунктам России, СНГ и мира в авиационном формате (включающие направление и скорость ветра, видимость, явления погоды, количество и форму облачности, нижнюю и верхнюю границу облачности).


Погода Красная Гора - сегодня

Время (UTC), дата Ветер
(°,м/с) 
Видим.   Явления Облачность Т
(°С)
Тd
(°С)
f(%) Тe
(°С)
Pmin
(гПа)
dP
(гПа)
Po
(мм)
O2
(г/м3)
Тmin Tmax R s Состояние
почвы
12 20.10.17 040 (СВ) 10 км    3/3 1000 м 
[Cu hum]
+10.8 -2.5 39 +11  1022.7  -1  754  292           
15 20.10.17 тихо ()   10 км    4/0 верхняя 
[Ci fib]
+7.8 -1.1 53 +8  1022.7  -0.1  753  295           
18 20.10.17 тихо ()   11000 м    ясно 
+1.6 -0.3 87 +2  1023.4  0.3  754  302    +10.9       
21 20.10.17 тихо ()   9000 м  дымка  ясно 
-0.4 -1.6 92 -0  1023.4  -0.2  754  304           
00 21.10.17 тихо ()   8000 м  дымка  3/0 средняя 
[Ac trans]
-0.6 -1.5 94 -1  1022.8  -0.6  753  304           
03 21.10.17 тихо ()   9000 м  дымка  6/0 средняя 
[Ac trans]
+1.3 -0.1 90 +1  1022  -0.7  753  302  -1.1         
06 21.10.17 тихо ()   4000 м  дымка  10/0 средняя 
[Ac As]
+2.4 +0.8 89 +2  1021.5  -0.4  752  300  -1.1         
09 21.10.17 050 (СВ) 10 км    10/0 средняя 
[As trans]
+5.1 +2.1 81 +6  1020.9  -0.4  752  297           
12 21.10.17 070 (В) 10 км  слаб. ливневой дождь  10/3 600 м кучево-дожд., средняя 
[Cb cap|As op]
+6.5 +1.5 70 +7  1019.6  -1.3  751  295           
15 21.10.17 тихо ()   10 км  слаб. ливневой дождь  10/6 500 м кучево-дожд., средняя 
[Cb cap|As op]
+4.7 +2.7 87 +5  1018.9  -0.7  750  297         
18 21.10.17 360 (С) 7000 м  дымка{ливн. осадки}  10/4 600 м кучево-дожд., средняя 
[Cb cap|As op]
+4 +3 93 +5  1018.5  -0.4  750  297    +6.9     
21 21.10.17 350 (С) 7000 м  дымка  4/0 средняя 
[Ac trans]
+2.7 +1.4 91 +3  1018.7  750  299           
00 22.10.17 360 (С) 7000 м  дымка  ясно 
-0.6 -1.8 92 -1  1019.1  0.1  750  303           
03 22.10.17 340 (С) 6000 м  дымка  ясно 
-2.4 -3.4 93 -2  1019.9  0.8  751  306  -2.5    0.5     
06 22.10.17 360 (С) 4000 м  дымка  3/0 средняя 
[Ac trans]
-2 -2.9 94 -1  1021  1.1  752  305  -2.9         
09 22.10.17 330 (СЗ) 10 км    6/4 600 м средняя 
[Sc|Ac trans]
+3 -0.8 76 +4  1021.7  752  300           
12 22.10.17 310 (СЗ) 10 км    4/4 600 м 
[Sc]
+5 -4 52 +6  1021.1  -0.5  752  298           
15 22.10.17 тихо ()   10 км    3/0 средняя 
[Ac trans]
+2.6 -3.6 64 +3  1020.8  -0.4  752  300           
18 22.10.17 тихо ()   8000 м  дымка  ясно 
-2.3 -3.6 91 -2  1021.3  0.2  752  306    +6       
21 22.10.17 тихо ()   7000 м  дымка  ясно 
-4.3 -4.9 96 -4  1021.9  0.4  752  308           
00 23.10.17 тихо ()   7000 м  дымка  ясно 
-5.6 +6.3 100 -6  1021.7  -0.3  752  308           
03 23.10.17 тихо ()   7000 м  дымка  ясно 
-5.2 -5.9 95 -5  1021.6  -0.1  752  309  -5.7         
06 23.10.17 тихо ()   4000 м  дымка  8/0 средняя 
[Ac trans]
-3.3 -4.1 94 -3  1021.5  752  307  -5.7         
09 23.10.17 060 (СВ) 10 км    9/0 средняя 
[Ac trans]
+2.8 -0.8 77 +4  1021.4  0.4  752  300           
12 23.10.17 050 (СВ) 10 км    9/3 600 м средняя 
[Sc|Ac trans]
+4.6 -1.1 66 +4  1021.4  0.1  752  298           
Время (UTC), дата Ветер
(°,м/с) 
Видим.   Явления Облачность Т
(°С)
Тd
(°С)
f(%) Тe
(°С)
Pmin
(гПа)
dP
(гПа)
Po
(мм)
O2
(г/м3)
Тmin Tmax R s Состояние
почвы

Для получения пояснительной информации подведите курсор к названию столбца.

ПОГОДА Красная Гора - архив

Всё, что Вы хотите узнать о погоде Красная Гора - удобно и подробно!

Выберите нужную дату (начиная с 1 января 2015* года) и нажмите кнопку "Найти".
Будут отображены архивные сводки погоды по пункту Красная Гора, начиная с указанной даты.


Отображать данные в формате CSV (для использования в таблицах Excel)


Внимание! Наш архив погоды предназначен исключительно для личного некоммерческого использования в познавательных целях. Если Вам необходимы официальные справки о состоянии погоды (для производственных, юридических, коммерческих и т.п. целей), обращайтесь в органы Росгидромета.

*Примечание: данная дата относится к архиву по метеостанциям СССР (Россия, СНГ, Балтия).
Архив по метеостанциям Зарубежной Европы и Азии (кроме Китая) хранится 10 дней, по другим регионам земного шара (Китай, Африка, Америка, Австралия, Океания) - 1 день.

Красная Гора - район местоположения метеостанции


Название, широта, долгота, высота метеостанции:
Красная Гора 53°ш. 31.6°д. 148 м над ур. моря [Российская Федерация]

Дополнительная информация

В oтличие oт бoльшинства пoгoдных сайтoв мы публикуем пoдрoбную метеoинфoрмацию в детальнoм прoфессиoнальнoм фoрмате.

Характеристики температуры и влажнoсти вoздуха измеряются на высoте 2 м в тени вдали oт зданий и деревьев.
Скoрoсть ветра измеряется на высoте 10 м (на урoвне рoста челoвека скoрoсть ветра ниже в 1.5-2 раза). Если метеoстанция нахoдится в гoрoде или в лесу, тo скoрoсть ветра занижена на 2-4 м/с пo сравнению с oткрытым местoм. Скoрoсть ветра над акватoриями крупных рек и oзёр, а также на вершинах хoлмoв на 2-5 м/с выше, чем в oбычных услoвиях.
Атмoсфернoе давление в разных тoчках местнoсти мoжет значительнo oтличаться oт давления на метеoстанции, в зависимoсти oт услoвий рельефа (при пoдъёме на 10 м давление пoнижается примернo на 1 мм рт.ст.).